Change the Weather History Date:

Saturday, October 12, 2013

  Actual Average Record
Temperature  
Mean Temperature 54 °F -  
Max Temperature 66 °F 67 °F 91 °F (2011)
Min Temperature 42 °F 47 °F 42 °F (2013)
Degree Days  
Heating Degree Days 11    
Growing Degree Days 4 (Base 50)    
Moisture  
Dew Point 48 °F    
Average Humidity 80    
Maximum Humidity 100    
Minimum Humidity 43    
Precipitation  
Precipitation 0.02 in 0.11 in - ()
Sea Level Pressure  
Sea Level Pressure 30.04 in    
Wind  
Wind Speed 5 mph ()    
Max Wind Speed 21 mph    
Max Gust Speed 29 mph    
Visibility 6.5 miles    
Events Fog    
Averages and records for this station are not official NWS values.
T = Trace of Precipitation, MM = Missing Value Source: Averaged Metar Reports

Daily Weather History Graph

Daily Weather History Graph

Search for Another Location

Airport or City:

Trip Planner

Search our weather history database for the weather conditions in past years. The results will help you decide how hot, cold, wet, or windy it might be!

Date:

Astronomy

Oct. 12, 2013 Rise Set
Actual Time 7:57 AM CEST 7:12 PM CEST
Civil Twilight 7:29 AM CEST 7:40 PM CEST
Nautical Twilight 6:57 AM CEST 8:12 PM CEST
Astronomical Twilight 6:25 AM CEST 8:44 PM CEST
Moon 3:15 PM CEST (10/12) 12:38 AM CEST (10/12)
Length of Visible Light 12h 10m
Length of Day
11h 14m
First Quarter, 55% of the Moon is Illuminated
Oct 12
First Quarter
Oct 19
Full
Oct 27
Last Quarter
Nov 3
New
Nov 10
First Quarter

Hourly Weather History & Observations

Time (CEST) Temp. Dew Point Humidity Pressure Visibility Wind Dir Wind Speed Gust Speed Precip Events Conditions
12:00 AM 50.0 °F 48.2 °F 94% 30.04 in 6.2 mi Calm Calm - N/A   Mostly Cloudy
12:30 AM 50.0 °F 48.2 °F 94% 30.06 in 6.2 mi Variable 2.3 mph - N/A   Light Drizzle
1:00 AM 50.0 °F 48.2 °F 94% 30.06 in 6.2 mi Variable 1.2 mph - N/A   Light Drizzle
1:30 AM 50.0 °F 46.4 °F 87% 30.06 in 6.2 mi Variable 2.3 mph - N/A   Mostly Cloudy
2:00 AM 49 °F 47 °F 90% 30.05 in - North 2.3 mph - -   Unknown Precipitation
2:00 AM 50.0 °F 46.4 °F 87% 30.06 in 6.2 mi Variable 2.3 mph - N/A   Mostly Cloudy
2:30 AM 48.2 °F 46.4 °F 93% 30.06 in 6.2 mi Variable 1.2 mph - N/A   Mostly Cloudy
3:30 AM 48.2 °F 46.4 °F 93% 30.04 in 6.2 mi North 3.5 mph - N/A   Mostly Cloudy
4:00 AM 48.2 °F 46.4 °F 93% 30.04 in 6.2 mi NNE 2.3 mph - N/A   Mostly Cloudy
4:30 AM 48.2 °F 48.2 °F 100% 30.04 in 6.2 mi Calm Calm - N/A   Mostly Cloudy
5:30 AM 46.4 °F 46.4 °F 100% 30.04 in 6.2 mi Calm Calm - N/A   Scattered Clouds
6:00 AM 46.4 °F 46.4 °F 100% 30.04 in 6.2 mi West 1.2 mph - N/A   Mostly Cloudy
6:30 AM 46.4 °F 46.4 °F 100% 30.04 in 6.2 mi WNW 2.3 mph - N/A   Mostly Cloudy
7:00 AM 44.6 °F 44.6 °F 100% 30.04 in 6.2 mi Variable 1.2 mph - N/A   Scattered Clouds
7:30 AM 44.6 °F 44.6 °F 100% 30.04 in 6.2 mi Calm Calm - N/A   Partly Cloudy
8:00 AM 43 °F 43 °F 100% 30.07 in 1 mi Calm Calm - - Fog Light Fog
8:00 AM 42.8 °F 42.8 °F 100% 30.06 in 6.2 mi NE 2.3 mph - N/A Fog Patches of Fog
8:30 AM 42.8 °F 42.8 °F 100% 30.06 in 6.2 mi Calm Calm - N/A Fog Patches of Fog
9:00 AM 44.6 °F 44.6 °F 100% 30.06 in 6.2 mi SSW 2.3 mph - N/A   Scattered Clouds
9:30 AM 46.4 °F 46.4 °F 100% 30.06 in 6.2 mi Variable 1.2 mph - N/A   Scattered Clouds
10:00 AM 50.0 °F 50.0 °F 100% 30.09 in 6.2 mi Calm Calm - N/A   Partly Cloudy
10:30 AM 53.6 °F 46.4 °F 77% 30.09 in 6.2 mi Calm Calm - N/A   Partly Cloudy
11:00 AM 55.4 °F 46.4 °F 72% 30.06 in 6.2 mi Calm Calm - N/A   Partly Cloudy
11:30 AM 57.2 °F 48.2 °F 72% 30.06 in 6.2 mi South 5.8 mph - N/A   Partly Cloudy
12:00 PM 59.0 °F 48.2 °F 67% 30.06 in 6.2 mi SSW 15.0 mph - N/A   Partly Cloudy
12:30 PM 60.8 °F 50.0 °F 68% 30.06 in 6.2 mi SSW 16.1 mph - N/A   Partly Cloudy
1:00 PM 60.8 °F 50.0 °F 68% 30.06 in 6.2 mi SSW 20.7 mph - N/A   Partly Cloudy
1:30 PM 62.6 °F 48.2 °F 59% 30.04 in 6.2 mi SSW 17.3 mph - N/A   Scattered Clouds
2:00 PM 66 °F 49 °F 43% 30.02 in 19 mi SSW 19.6 mph - -   Partly Cloudy
2:00 PM 62.6 °F 48.2 °F 59% 30.04 in 6.2 mi SSW 18.4 mph - N/A   Scattered Clouds
2:30 PM 64.4 °F 48.2 °F 56% 30.04 in 6.2 mi SSW 19.6 mph - N/A   Scattered Clouds
3:00 PM 64.4 °F 50.0 °F 59% 30.01 in 6.2 mi SSW 17.3 mph 28.8 mph N/A   Scattered Clouds
3:30 PM 64.4 °F 50.0 °F 59% 30.01 in 6.2 mi SSW 17.3 mph 28.8 mph N/A   Partly Cloudy
4:00 PM 64.4 °F 50.0 °F 59% 30.01 in 6.2 mi SSW 17.3 mph 28.8 mph N/A   Partly Cloudy
4:30 PM 64.4 °F 50.0 °F 59% 30.01 in 6.2 mi SSW 17.3 mph 28.8 mph N/A   Partly Cloudy
5:00 PM 64.4 °F 50.0 °F 59% 30.01 in 6.2 mi SSW 17.3 mph 28.8 mph N/A   Partly Cloudy
5:30 PM 64.4 °F 50.0 °F 59% 30.01 in 6.2 mi SSW 17.3 mph 28.8 mph N/A   Partly Cloudy
6:00 PM 64.4 °F 50.0 °F 59% 30.01 in 6.2 mi SSW 17.3 mph 28.8 mph N/A   Partly Cloudy
6:30 PM 64.4 °F 50.0 °F 59% 30.01 in 6.2 mi SSW 17.3 mph 28.8 mph N/A   Partly Cloudy
7:00 PM 64.4 °F 50.0 °F 59% 30.01 in 6.2 mi SSW 17.3 mph 28.8 mph N/A   Partly Cloudy
7:30 PM 64.4 °F 50.0 °F 59% 30.01 in 6.2 mi SSW 17.3 mph 28.8 mph N/A   Partly Cloudy
8:00 PM 59 °F 54 °F 78% 30.04 in 12 mi SSW 8.1 mph - -   Scattered Clouds
8:00 PM 64.4 °F 50.0 °F 59% 30.01 in 6.2 mi SSW 17.3 mph 28.8 mph N/A   Partly Cloudy
8:30 PM 64.4 °F 50.0 °F 59% 30.01 in 6.2 mi SSW 17.3 mph 28.8 mph N/A   Partly Cloudy
9:00 PM 64.4 °F 50.0 °F 59% 30.01 in 6.2 mi SSW 17.3 mph 28.8 mph N/A   Partly Cloudy
9:30 PM 57.2 °F 53.6 °F 88% 30.06 in 6.2 mi SW 3.5 mph - N/A   Partly Cloudy
10:00 PM 55.4 °F 53.6 °F 94% 30.06 in 6.2 mi Calm Calm - N/A   Partly Cloudy
10:30 PM 55.4 °F 53.6 °F 94% 30.06 in 6.2 mi Calm Calm - N/A   Partly Cloudy
11:00 PM 55.4 °F 53.6 °F 94% 30.09 in 6.2 mi Variable 1.2 mph - N/A   Partly Cloudy
11:30 PM 55.4 °F 53.6 °F 94% 30.09 in 6.2 mi Calm Calm - N/A   Partly Cloudy